Location: Be?chatów
(51.3665°N, 19.3745°E)
Time: 08:38:34
(UTC+00:00)

Spot 2 Rocket - Pass Details

Date: 19 May 2025
Orbit: 753 x 766 km, 98.3° (Epoch: 16 June)

Event Time Altitude Azimuth Distance (km) Brightness Sun altitude
Exits shadow 20:17:42 - 188° (S) 2,426 5.7 -12.2°
Reaches altitude 10° 20:18:06 10° 190° (S) 2,275 5.5 -12.3°
Maximum altitude 20:22:53 44° 262° (W) 1,044 4.4 -12.7°
Drops below altitude 10° 20:27:42 10° 334° (NNW) 2,297 7.4 -13.1°
Sets 20:30:08 0° 341° (NNW) 3,229 8.5 -13.3°
